This demonstration page uses our WeatherBlox Daily Observations layout. Learn more.

Left ArrowRight Arrow

39.08367, -84.50855

Hourly Observations for December 26, 2017

Temp ( °F °C ) Dew Point ( °F °C ) Humidity (%) Winds ( mph kmh ) Pressure ( in mb ) Visibility ( mi km ) Precip ( " mm )
12:53 am 00:53 Clear 24 -4.4 9 -12.8 52 52 W 10 17 30.47 1032 10 16 N/A
1:53 am 01:53 Cloudy 24 -4.4 8 -13.3 50 50 W 9 15 30.48 1032 10 16 N/A
2:53 am 02:53 Mostly Cloudy 23 -5 9 -12.8 55 55 W 8 13 30.49 1032 10 16 N/A
3:53 am 03:53 Mostly Cloudy 23 -5 10 -12.2 57 57 W 7 11 30.51 1033 10 16 N/A
4:53 am 04:53 Partly Cloudy 23 -5 10 -12.2 57 57 W 7 11 30.50 1033 10 16 N/A
5:53 am 05:53 Cloudy 23 -5 9 -12.8 55 55 NW 7 11 30.52 1034 10 16 N/A
6:53 am 06:53 Cloudy 22 -5.6 9 -12.8 57 57 NW 8 13 30.53 1034 10 16 N/A
7:53 am 07:53 Cloudy 21 -6.1 12 -11.1 68 68 NNW 10 17 30.56 1035 10 16 N/A
8:53 am 08:53 Cloudy 20 -6.7 11 -11.7 68 68 NNW 7 11 30.58 1036 10 16 N/A
9:53 am 09:53 Mostly Cloudy 21 -6.1 11 -11.7 65 65 N N/A 30.59 1036 10 16 N/A
10:53 am 10:53 Mostly Sunny 24 -4.4 11 -11.7 57 57 WNW 8 13 30.62 1037 10 16 N/A
11:53 am 11:53 Mostly Cloudy 25 -3.9 11 -11.7 55 55 W 7 11 30.59 1036 10 16 N/A
12:53 pm 12:53 Sunny 25 -3.9 12 -11.1 58 58 N N/A 30.56 1035 10 16 N/A
1:53 pm 13:53 Mostly Sunny 26 -3.3 12 -11.1 55 55 W 9 15 30.56 1035 10 16 N/A
2:53 pm 14:53 Mostly Sunny 25 -3.9 12 -11.1 58 58 W 8 13 30.55 1035 10 16 N/A
3:53 pm 15:53 Cloudy 26 -3.3 11 -11.7 53 53 N N/A 30.54 1034 10 16 N/A
4:53 pm 16:53 Cloudy 22 -5.6 12 -11.1 66 66 NNE 9 15 30.55 1035 10 16 N/A
5:53 pm 17:53 Cloudy with Light Snow 21 -6.1 13 -10.6 71 71 N 7 11 30.55 1035 10 16 N/A
6:53 pm 18:53 Cloudy with Light Snow 20 -6.7 14 -10 78 78 N 9 15 30.57 1035 6 10 N/A
7:53 pm 19:53 Cloudy with Light Snow 19 -7.2 14 -10 81 81 N 8 13 30.58 1036 3 5 N/A
8:53 pm 20:53 Cloudy with Light Snow 18 -7.8 13 -10.6 81 81 N 8 13 30.58 1035 6 10 N/A
9:53 pm 21:53 Cloudy 17 -8.3 12 -11.1 80 80 N 7 11 30.58 1036 10 16 N/A
10:08 pm 22:08 Cloudy 17 -8.3 12 -11.1 80 80 N 8 13 30.59 1036 10 16 N/A
10:20 pm 22:20 Cloudy 17 -8.3 12 -11.1 80 80 VRB 5 7 30.59 1036 10 16 N/A
10:53 pm 22:53 Cloudy 17 -8.3 11 -11.7 77 77 N 9 15 30.60 1036 10 16 N/A
11:53 pm 23:53 Mostly Cloudy 15 -9.4 9 -12.8 77 77 N 7 11 30.62 1037 10 16 N/A

Powered by AerisWeather